Date String (YYYY-MM-DD hh:mm:ss) UTC,Instrument flags,absolute air pressure of the measurement (hPa),sample flow rate (lpm),inlet stack bypass flow (lpm),air temperature of the measurement (°C),ambient temperature measured by the external sensor (°C),aerosol sample conditioner tube jacket temperature (°C),OPC LED temperature (°C),internal box temperature (°C),relative humidity of the measurement (%),span deviation,mass concentration of particles derived from Lorenz-Mie calculation of OPC scattering (μg/m³),mass concentration of particles derived from Lorenz-Mie calculation of OPC scattering (μg/m³),mass concentration of particles derived from Lorenz-Mie calculation of OPC scattering (μg/m³)
DateTimeUTC,F1_M11,P_M11,Q1_M11,Q2_M11,T1_M11,T2_M11,T3_M11,T4_M11,T5_M11,U1_M11,ZSPAN_M11,X0_M11,X2_M11,X1_M11
2023-09-20 09:00:00,SystemResetWarning,0828.8,5.01,000.00,028.7,027.3,000.0,037.2,030.3,16.3,0000.0,0002.24,0001.46,0001.19
2023-09-20 09:01:00,SystemResetWarning,0828.7,5.00,000.00,028.7,027.3,000.0,037.2,030.3,16.1,0000.0,0002.19,0001.44,0001.18
2023-09-20 09:02:00,SystemResetWarning,0828.7,5.00,000.00,028.7,027.3,000.0,037.2,030.3,16.1,0000.0,0002.11,0001.40,0001.17
2023-09-20 09:03:00,SystemResetWarning,0828.7,5.00,000.00,028.7,027.3,000.0,037.2,030.3,16.1,0000.0,0002.05,0001.37,0001.16
2023-09-20 09:04:00,SystemResetWarning,0828.7,5.00,000.00,028.7,027.3,000.0,037.2,030.3,16.1,0000.0,0002.09,0001.38,0001.16
2023-09-20 09:05:00,SystemResetWarning,0828.7,5.00,000.00,028.7,027.3,000.0,037.2,030.3,16.1,0000.0,0002.02,0001.38,0001.15
2023-09-20 09:06:00,SystemResetWarning,0828.7,4.99,000.00,028.8,027.3,000.0,037.2,030.3,16.1,0000.0,0001.92,0001.35,0001.15
2023-09-20 09:07:00,SystemResetWarning,0828.7,5.00,000.00,028.8,027.3,000.0,037.2,030.3,16.2,0000.0,0002.11,0001.35,0001.16
2023-09-20 09:08:00,SystemResetWarning,0828.7,5.01,000.00,028.8,027.3,000.0,037.2,030.4,16.2,0000.0,0002.72,0001.35,0001.16
2023-09-20 09:09:00,SystemResetWarning,0828.7,5.01,000.00,028.8,027.3,000.0,037.2,030.4,16.2,0000.0,0002.78,0001.37,0001.16
2023-09-20 09:10:00,SystemResetWarning,0828.6,5.01,000.00,028.7,027.3,000.0,037.2,030.4,16.2,0000.0,0002.72,0001.40,0001.17
2023-09-20 09:11:00,SystemResetWarning,0828.7,4.99,000.00,028.7,027.3,000.0,037.2,030.3,16.2,0000.0,0002.67,0001.39,0001.16
2023-09-20 09:12:00,SystemResetWarning,0828.6,4.99,000.00,028.7,027.3,000.0,037.2,030.3,16.1,0000.0,0002.69,0001.39,0001.16
2023-09-20 09:13:00,SystemResetWarning,0828.6,5.00,000.00,028.7,027.3,000.0,037.2,030.3,16.3,0000.0,0002.72,0001.41,0001.16
2023-09-20 09:14:00,SystemResetWarning,0828.6,5.00,000.00,028.7,027.3,000.0,037.2,030.3,16.1,0000.0,0002.83,0001.43,0001.15
2023-09-20 09:15:00,SystemResetWarning,0828.6,5.00,000.00,028.7,027.3,000.0,037.2,030.3,16.2,0000.0,0002.85,0001.43,0001.16
2023-09-20 09:16:00,SystemResetWarning,0828.6,5.00,000.00,028.7,027.3,000.0,037.2,030.3,16.3,0000.0,0002.98,0001.43,0001.16
2023-09-20 09:17:00,SystemResetWarning,0828.6,5.00,000.00,028.7,027.3,000.0,037.2,030.3,16.0,0000.0,0003.10,0001.45,0001.16
2023-09-20 09:18:00,SystemResetWarning,0828.7,5.00,000.00,028.7,027.3,000.0,037.2,030.3,16.1,0000.0,0002.95,0001.45,0001.17
2023-09-20 09:19:00,SystemResetWarning,0828.7,5.01,000.00,028.8,027.3,000.0,037.2,030.3,16.2,0000.0,0002.40,0001.51,0001.18
2023-09-20 09:20:00,SystemResetWarning,0828.7,4.99,000.00,028.8,027.3,000.0,037.2,030.3,16.2,0000.0,0002.43,0001.53,0001.19
2023-09-20 09:21:00,SystemResetWarning,0828.7,4.99,000.00,028.8,027.3,000.0,037.2,030.3,16.2,0000.0,0002.40,0001.50,0001.19
2023-09-20 09:22:00,SystemResetWarning,0828.7,5.00,000.00,028.7,027.3,000.0,037.2,030.4,16.3,0000.0,0002.48,0001.51,0001.19
2023-09-20 09:23:00,SystemResetWarning,0828.7,5.00,000.00,028.7,027.2,000.0,037.2,030.4,16.3,0000.0,0002.53,0001.53,0001.21
2023-09-20 09:24:00,SystemResetWarning,0828.7,5.01,000.00,028.7,027.2,000.0,037.2,030.3,16.5,0000.0,0002.56,0001.55,0001.22
2023-09-20 09:25:00,SystemResetWarning,0828.7,5.00,000.00,028.7,027.2,000.0,037.2,030.3,16.3,0000.0,0002.44,0001.53,0001.23
2023-09-20 09:26:00,SystemResetWarning,0828.7,5.00,000.00,028.7,027.2,000.0,037.1,030.3,16.2,0000.0,0002.41,0001.52,0001.23
2023-09-20 09:27:00,SystemResetWarning,0828.7,4.99,000.00,028.7,027.2,000.0,037.2,030.3,16.3,0000.0,0002.24,0001.51,0001.23
2023-09-20 09:28:00,SystemResetWarning,0828.7,4.99,000.00,028.7,027.2,000.0,037.2,030.2,16.2,0000.0,0002.09,0001.49,0001.24
2023-09-20 09:29:00,SystemResetWarning,0828.7,5.01,000.00,028.7,027.2,000.0,037.2,030.2,16.3,0000.0,0002.11,0001.49,0001.24
2023-09-20 09:30:00,SystemResetWarning,0828.7,5.01,000.00,028.6,027.2,000.0,037.1,030.3,16.3,0000.0,0002.00,0001.43,0001.22
2023-09-20 09:31:00,SystemResetWarning,0828.7,4.99,000.00,028.6,027.1,000.0,037.1,030.2,16.3,0000.0,0001.96,0001.40,0001.21
2023-09-20 09:32:00,SystemResetWarning,0828.6,4.99,000.00,028.6,027.1,000.0,037.1,030.2,16.3,0000.0,0001.94,0001.41,0001.21
2023-09-20 09:33:00,SystemResetWarning,0828.7,5.00,000.00,028.6,027.2,000.0,037.1,030.2,16.2,0000.0,0001.91,0001.44,0001.20
2023-09-20 09:34:00,SystemResetWarning,0828.6,5.00,000.00,028.6,027.2,000.0,037.1,030.2,16.4,0000.0,0001.96,0001.46,0001.19
2023-09-20 09:35:00,SystemResetWarning,0828.6,5.00,000.00,028.6,027.2,000.0,037.1,030.2,16.4,0000.0,0001.93,0001.44,0001.18
2023-09-20 09:36:00,SystemResetWarning,0828.6,5.00,000.00,028.7,027.2,000.0,037.1,030.2,16.5,0000.0,0001.95,0001.43,0001.18
2023-09-20 09:37:00,SystemResetWarning,0828.6,4.99,000.00,028.7,027.2,000.0,037.1,030.2,16.4,0000.0,0002.12,0001.46,0001.17
2023-09-20 09:38:00,SystemResetWarning,0828.6,5.00,000.00,028.7,027.3,000.0,037.1,030.3,16.5,0000.0,0002.32,0001.48,0001.16
2023-09-20 09:39:00,SystemResetWarning,0828.6,5.01,000.00,028.7,027.3,000.0,037.1,030.3,16.5,0000.0,0002.33,0001.49,0001.16
2023-09-20 09:40:00,SystemResetWarning,0828.6,5.00,000.00,028.7,027.3,000.0,037.1,030.4,16.3,0000.0,0002.33,0001.49,0001.15
2023-09-20 09:41:00,SystemResetWarning,0828.6,4.99,000.00,028.7,027.3,000.0,037.1,030.4,16.3,0000.0,0002.32,0001.49,0001.14
2023-09-20 09:42:00,SystemResetWarning,0828.6,4.99,000.00,028.7,027.3,000.0,037.1,030.4,16.2,0000.0,0002.38,0001.51,0001.15
2023-09-20 09:43:00,SystemResetWarning,0828.6,5.00,000.00,028.7,027.3,000.0,037.1,030.4,16.1,0000.0,0002.48,0001.53,0001.16
2023-09-20 09:44:00,SystemResetWarning,0828.6,5.00,000.00,028.8,027.4,000.0,037.1,030.4,16.1,0000.0,0002.47,0001.53,0001.16
2023-09-20 09:45:00,SystemResetWarning,0828.6,5.01,000.00,028.8,027.4,000.0,037.1,030.4,16.0,0000.0,0002.44,0001.51,0001.16
2023-09-20 09:46:00,SystemResetWarning,0828.6,5.01,000.00,028.8,027.4,000.0,037.2,030.4,15.8,0000.0,0002.48,0001.53,0001.17
2023-09-20 09:47:00,SystemResetWarning,0828.6,5.00,000.00,028.8,027.4,000.0,037.2,030.4,15.8,0000.0,0002.57,0001.53,0001.16
2023-09-20 09:48:00,SystemResetWarning,0828.6,4.99,000.00,028.8,027.4,000.0,037.2,030.4,16.0,0000.0,0002.65,0001.51,0001.15
2023-09-20 09:49:00,SystemResetWarning,0828.6,4.99,000.00,028.8,027.4,000.0,037.2,030.4,16.1,0000.0,0002.69,0001.50,0001.16
2023-09-20 09:50:00,SystemResetWarning,0828.6,4.99,000.00,028.8,027.4,000.0,037.2,030.4,15.9,0000.0,0002.70,0001.48,0001.15
2023-09-20 09:51:00,SystemResetWarning,0828.6,4.99,000.00,028.8,027.4,000.0,037.2,030.4,15.8,0000.0,0002.80,0001.49,0001.15
2023-09-20 09:52:00,SystemResetWarning,0828.6,5.01,000.00,028.8,027.4,000.0,037.2,030.4,15.8,0000.0,0002.79,0001.49,0001.14
2023-09-20 09:53:00,SystemResetWarning,0828.6,5.01,000.00,028.8,027.4,000.0,037.2,030.4,16.0,0000.0,0002.81,0001.51,0001.13
2023-09-20 09:54:00,SystemResetWarning,0828.6,4.99,000.00,028.8,027.4,000.0,037.2,030.5,15.9,0000.0,0002.81,0001.52,0001.13
2023-09-20 09:55:00,SystemResetWarning,0828.6,4.99,000.00,028.9,027.4,000.0,037.2,030.4,15.9,0000.0,0002.84,0001.50,0001.13
2023-09-20 09:56:00,SystemResetWarning,0828.6,5.02,000.00,028.9,027.4,000.0,037.2,030.5,16.2,0000.0,0003.06,0001.51,0001.13
2023-09-20 09:57:00,SystemResetWarning,0828.6,5.01,000.00,028.9,027.4,000.0,037.2,030.5,16.3,0000.0,0003.16,0001.53,0001.13
2023-09-20 09:58:00,SystemResetWarning,0828.6,4.99,000.00,028.9,027.4,000.0,037.2,030.5,16.3,0000.0,0003.12,0001.53,0001.14
2023-09-20 09:59:00,SystemResetWarning,0828.6,4.99,000.00,028.9,027.4,000.0,037.2,030.5,16.2,0000.0,0004.54,0001.55,0001.15
